Home > Weather > Halifax > Past weeks

Flag for Canada Weather for the Past 2 Weeks in Halifax, Nova Scotia, Canada

Now
55 °F

Passing clouds.


Feels Like: 54 °F
Forecast: 32 / 53 °F
Wind: 7 mph from Northwest

Location: Halifax International Airport

Current Time: Apr 30, 2016 at 3:57:21 PM

Latest Report: Apr 30, 2016 at 3:00 PM


Visibility: 15 mi

Pressure: 30.16 "Hg

Humidity: 24%

Dew Point: 19 °F

Location of HalifaxLocation

Historic Weather in Halifax — Graph

°F

Halifax Temperature Yesterday

Maximum temperature yesterday: 48 °F (at 3:59 PM)
Minimum temperature yesterday: 27 °F (at 5:00 AM)
Average temperature yesterday: 37 °F

High & Low Weather Summary for the Past Weeks

 TemperatureHumidityPressure
High68 °F (Apr 22, 4:00 PM)100% (Apr 15, 2:00 PM)30.48 "Hg (Apr 15, 2:00 PM)
Low27 °F (Apr 19, 2:00 AM)20% (Apr 29, 5:00 PM)29.67 "Hg (Apr 21, 5:00 PM)
Average39 °F67%29.99 "Hg
* Reported Apr 15 2:00 PM — Apr 30 2:00 PM, Halifax, Weather by CustomWeather, © 2016

Note: Actual official high and low records may vary slightly from our data, if they occured in-between our weather recording intervals... More about our weather records

Advertising

Halifax Weather History for the Previous 24 Hours

Scroll right to see more
 ConditionsComfort  
Time TempWeatherWind HumidityBarometerVisibility
2:00 PM
Sat, Apr 30
54 °FPassing clouds.3 mph24%30.18 "Hg15 mi
1:00 PM54 °FPassing clouds.10 mph24%30.18 "Hg15 mi
12:00 PM50 °FScattered clouds.9 mph28%30.19 "Hg15 mi
11:00 AM48 °FScattered clouds.6 mph32%30.19 "Hg15 mi
10:00 AM45 °FPartly sunny.8 mph34%30.20 "Hg15 mi
9:00 AM41 °FPartly sunny.9 mph53%30.20 "Hg15 mi
8:00 AM36 °FPartly sunny.7 mph81%30.20 "Hg15 mi
7:00 AM32 °FPassing clouds.8 mph87%30.19 "Hg15 mi
6:00 AM32 °FPassing clouds.10 mph87%30.17 "Hg15 mi
5:00 AM32 °FPassing clouds.9 mph80%30.16 "Hg15 mi
4:00 AM34 °FPassing clouds.10 mph70%30.15 "Hg15 mi
3:00 AM34 °FClear.9 mph60%30.14 "Hg15 mi
2:00 AM34 °FClear.8 mph70%30.14 "Hg15 mi
1:00 AM32 °FClear.7 mph80%30.13 "Hg15 mi
12:00 AM34 °FClear.7 mph75%30.15 "Hg15 mi
11:00 PM
Fri, Apr 29
34 °FClear.8 mph70%30.15 "Hg15 mi
10:00 PM36 °FClear.7 mph56%30.15 "Hg15 mi
9:00 PM37 °FSunny.10 mph52%30.14 "Hg15 mi
8:00 PM41 °FSunny.14 mph42%30.10 "Hg15 mi
7:00 PM48 °FSunny.10 mph29%30.07 "Hg15 mi
6:00 PM48 °FSunny.10 mph20%30.07 "Hg15 mi
5:00 PM48 °FSunny.9 mph20%30.07 "Hg15 mi
3:59 PM48 °FSunny.13 mph25%30.08 "Hg15 mi
3:00 PM46 °FSunny.7 mph25%30.09 "Hg15 mi
Weather by CustomWeather, © 2016

See weather overviewHow to use our weather pages